Weather History for KCHA - June, 2012

Change the Weather History Date:

Friday, June 29, 2012

  Actual Average Record
Temperature  
Mean Temperature 88 °F 79 °F  
Max Temperature 106 °F 89 °F 106 °F (2012)
Min Temperature 70 °F 69 °F 52 °F (1974)
Degree Days  
Heating Degree Days 0 0  
Month to date heating degree days 0 0  
Since 1 June heating degree days 0 0  
Since 1 July heating degree days 2414 3238  
Cooling Degree Days 23 14  
Month to date cooling degree days 351 331  
Year to date cooling degree days 776 527  
Since 1 June cooling degree days 351 331  
Growing Degree Days 38 (Base 50)    
Moisture  
Dew Point 64 °F    
Average Humidity 51    
Maximum Humidity 79    
Minimum Humidity 23    
Precipitation  
Precipitation 0.00 in 0.15 in 1.21 in (1935)
Month to date precipitation 2.43 3.90  
Year to date precipitation 20.37 26.72  
Snow  
Snow 0.00 in 0.00 in - ()
Month to date snowfall 0.0 0.0  
Since 1 June snowfall 0.0 0.0  
Since 1 July snowfall T 3.9  
Snow Depth 0.00 in    
Sea Level Pressure  
Sea Level Pressure 29.92 in    
Wind  
Wind Speed 2 mph (SW)    
Max Wind Speed 10 mph    
Max Gust Speed 13 mph    
Visibility 10 miles    
Events      
T = Trace of Precipitation, MM = Missing Value Source: NWS Daily Summary

Daily Weather History Graph

Daily Weather History Graph

Search for Another Location

Airport or City:

Trip Planner

Search our weather history database for the weather conditions in past years. The results will help you decide how hot, cold, wet, or windy it might be!

Date:

Astronomy

Jun. 29, 2012 Rise Set
Actual Time 6:29 AM EDT 8:58 PM EDT
Civil Twilight 6:00 AM EDT 9:28 PM EDT
Nautical Twilight 5:23 AM EDT 10:05 PM EDT
Astronomical Twilight 4:43 AM EDT 10:45 PM EDT
Moon 4:47 PM EDT (6/29) 2:34 AM EDT (6/29)
Length of Visible Light 15h 28m
Length of Day
14h 29m
Waxing Gibbous, 77% of the Moon is Illuminated
Jun 29
Waxing Gibbous
Jul 3
Full
Jul 10
Last Quarter
Jul 19
New
Jul 26
First Quarter

Hourly Weather History & Observations

Time (EDT) Temp. Heat Index Dew Point Humidity Pressure Visibility Wind Dir Wind Speed Gust Speed Precip Events Conditions
12:53 AM 75.9 °F - 66.0 °F 71% 29.96 in 10.0 mi Calm Calm - N/A   Clear
1:53 AM 75.0 °F - 66.0 °F 73% 29.96 in 10.0 mi Calm Calm - N/A   Clear
2:53 AM 72.0 °F - 64.9 °F 78% 29.95 in 10.0 mi Calm Calm - N/A   Clear
3:53 AM 73.0 °F - 64.9 °F 76% 29.94 in 10.0 mi SSW 3.5 mph - N/A   Partly Cloudy
4:53 AM 71.1 °F - 64.9 °F 81% 29.95 in 10.0 mi Calm Calm - N/A   Scattered Clouds
5:53 AM 73.0 °F - 64.9 °F 76% 29.96 in 10.0 mi Calm Calm - N/A   Mostly Cloudy
6:53 AM 72.0 °F - 64.9 °F 78% 29.97 in 10.0 mi Calm Calm - N/A   Scattered Clouds
7:53 AM 73.4 °F - 64.4 °F 73% 30.01 in 10.0 mi Calm Calm - N/A   Scattered Clouds
8:53 AM 78.1 °F - 66.0 °F 66% 29.99 in 10.0 mi Calm Calm - N/A   Scattered Clouds
9:53 AM 84.9 °F 86.1 °F 64.0 °F 49% 29.98 in 10.0 mi Calm Calm - N/A   Scattered Clouds
10:53 AM 91.0 °F 90.9 °F 61.0 °F 36% 29.97 in 10.0 mi Calm Calm - N/A   Scattered Clouds
11:53 AM 93.9 °F 94.8 °F 62.1 °F 35% 29.95 in 10.0 mi NNW 3.5 mph - N/A   Scattered Clouds
12:53 PM 97.0 °F 98.3 °F 63.0 °F 32% 29.94 in 10.0 mi Calm Calm - N/A   Scattered Clouds
1:53 PM 99.0 °F 100.5 °F 63.0 °F 30% 29.92 in 10.0 mi Variable 3.5 mph - N/A   Scattered Clouds
2:53 PM 102.9 °F 104.8 °F 62.1 °F 26% 29.90 in 10.0 mi Variable 3.5 mph - N/A   Scattered Clouds
3:53 PM 102.9 °F 103.0 °F 57.9 °F 23% 29.88 in 10.0 mi South 5.8 mph - N/A   Scattered Clouds
4:53 PM 104.0 °F 105.3 °F 60.1 °F 24% 29.85 in 10.0 mi SSW 5.8 mph - N/A   Scattered Clouds
5:53 PM 105.1 °F 106.4 °F 60.1 °F 23% 29.83 in 10.0 mi SW 6.9 mph - N/A   Scattered Clouds
6:53 PM 102.9 °F 104.8 °F 62.1 °F 26% 29.82 in 10.0 mi SSW 8.1 mph - N/A   Partly Cloudy
7:53 PM 100.9 °F 103.3 °F 63.0 °F 29% 29.83 in 10.0 mi SSW 6.9 mph - N/A   Clear
8:53 PM 97.0 °F 100.4 °F 66.0 °F 36% 29.83 in 10.0 mi SW 4.6 mph - N/A   Scattered Clouds
9:53 PM 93.0 °F 96.4 °F 66.9 °F 42% 29.85 in 10.0 mi Calm Calm - N/A   Scattered Clouds
10:53 PM 90.0 °F 94.5 °F 69.1 °F 50% 29.86 in 10.0 mi Calm Calm - N/A   Scattered Clouds
11:53 PM 86.0 °F 90.7 °F 70.0 °F 59% 29.87 in 10.0 mi Calm Calm - N/A   Scattered Clouds